This is the latest recevied weather packets stored in our database for station/object HS5BOG-13. If no packets are shown the sender has not sent any weather packets the latest 10 day(s).
| Time | Temp. | Humidity | Pressure | Rain* | Wind** | Luminosity | Snow |
|---|---|---|---|---|---|---|---|
| 1777720571 | 33.33° C | 36% | 986.9 hPa | - | - | - | - |
| 1777719966 | 33.33° C | 38% | 986.7 hPa | - | - | - | - |
| 1777719360 | 33.33° C | 37% | 986.6 hPa | - | - | - | - |
| 1777718755 | 33.33° C | 34% | 986.8 hPa | - | - | - | - |
| 1777718149 | 33.33° C | 38% | 986.8 hPa | - | - | - | - |
| 1777717544 | 33.33° C | 37% | 986.7 hPa | - | - | - | - |
| 1777716938 | 33.33° C | 37% | 986.7 hPa | - | - | - | - |
| 1777716332 | 33.33° C | 36% | 986.6 hPa | - | - | - | - |
| 1777715727 | 33.33° C | 38% | 986.7 hPa | - | - | - | - |
| 1777715121 | 33.33° C | 35% | 986.5 hPa | - | - | - | - |
| 1777714516 | 32.78° C | 35% | 986.5 hPa | - | - | - | - |
| 1777713910 | 32.78° C | 37% | 986.7 hPa | - | - | - | - |
| 1777713304 | 32.78° C | 38% | 986.8 hPa | - | - | - | - |
| 1777712699 | 33.33° C | 35% | 986.9 hPa | - | - | - | - |
| 1777712093 | 32.78° C | 39% | 987.1 hPa | - | - | - | - |
| 1777711488 | 32.78° C | 42% | 987.3 hPa | - | - | - | - |
| 1777710882 | 32.78° C | 40% | 987.4 hPa | - | - | - | - |
| 1777710277 | 32.78° C | 42% | 987.6 hPa | - | - | - | - |
| 1777709671 | 32.78° C | 39% | 987.8 hPa | - | - | - | - |
| 1777709065 | 32.78° C | 41% | 987.9 hPa | - | - | - | - |
| 1777708460 | 32.78° C | 41% | 988.1 hPa | - | - | - | - |
| 1777707854 | 32.78° C | 42% | 988.2 hPa | - | - | - | - |
| 1777707249 | 32.78° C | 43% | 988.4 hPa | - | - | - | - |
| 1777706643 | 32.78° C | 43% | 988.6 hPa | - | - | - | - |
| 1777706038 | 32.22° C | 43% | 988.7 hPa | - | - | - | - |
* Rain since midnight (hover to see other rain measurements)
** Current wind speed in m/s (hover to see current wind gust speed)